| time (UTC) | temp F | wind direction | speed MPH | gust MPH | rain 1hr in | rain 24hr in | rain mn in | humidity % | barometer mb |
| 20260906040027 | 71 | 229 | 0.0 | 0.0 | 0.00 | 0.09 | 0.09 | 44 | 1012.0 |
| 20260906034528 | 71 | 231 | 0.0 | 0.0 | 0.00 | 0.09 | 0.09 | 42 | 1012.0 |
| 20260906033025 | 71 | 230 | 0.0 | 0.0 | 0.00 | 0.09 | 0.09 | 41 | 1012.1 |
| 20260906031525 | 71 | 229 | 0.0 | 0.0 | 0.00 | 0.09 | 0.09 | 40 | 1012.3 |
| 20260906030025 | 72 | 229 | 0.0 | 0.0 | 0.00 | 0.09 | 0.09 | 39 | 1012.1 |
| 20260906024525 | 72 | 229 | 0.0 | 0.0 | 0.00 | 0.09 | 0.09 | 38 | 1011.9 |
| 20260906023024 | 72 | 228 | 0.0 | 0.0 | 0.00 | 0.09 | 0.09 | 37 | 1011.8 |
| 20260906021524 | 73 | 229 | 0.0 | 0.0 | 0.00 | 0.09 | 0.09 | 31 | 1011.4 |
| 20260906020024 | 73 | 229 | 0.0 | 2.0 | 0.00 | 0.09 | 0.09 | 26 | 1011.5 |
| 20260906014540 | 73 | 227 | 0.0 | 1.0 | 0.00 | 0.09 | 0.09 | 23 | 1011.8 |
| 20260906013029 | 74 | 228 | 0.0 | 2.0 | 0.00 | 0.09 | 0.09 | 21 | 1011.3 |
| 20260906011527 | 74 | 235 | 0.0 | 2.0 | 0.00 | 0.09 | 0.09 | 25 | 1011.1 |
| 20260906010025 | 74 | 234 | 0.0 | 0.0 | 0.00 | 0.09 | 0.09 | 26 | 1010.8 |
| 20260906004524 | 75 | 234 | 0.0 | 0.0 | 0.00 | 0.09 | 0.09 | 40 | 1010.9 |
| 20260906003023 | 76 | 235 | 0.0 | 0.0 | 0.00 | 0.09 | 0.09 | 50 | 1011.0 |
| 20260906001522 | 77 | 236 | 0.0 | 2.0 | 0.00 | 0.09 | 0.09 | 55 | 1010.9 |
| 20260906000022 | 78 | 238 | 0.0 | 0.0 | 0.00 | 0.09 | 0.09 | 57 | 1010.6 |
| 20260905234520 | 79 | 227 | 0.0 | 0.0 | 0.00 | 0.09 | 0.09 | 59 | 1010.3 |
| 20260905233020 | 80 | 225 | 0.0 | 0.0 | 0.00 | 0.09 | 0.09 | 60 | 1010.1 |
| 20260905231520 | 81 | 231 | 1.0 | 2.0 | 0.00 | 0.09 | 0.09 | 60 | 1010.1 |
| 20260905230019 | 82 | 225 | 0.0 | 2.0 | 0.00 | 0.09 | 0.09 | 58 | 1010.2 |
| 20260905224520 | 85 | 223 | 0.0 | 2.0 | 0.00 | 0.09 | 0.09 | 53 | 1010.2 |
| 20260905223030 | 84 | 301 | 1.0 | 3.0 | 0.00 | 0.09 | 0.09 | 53 | 1010.0 |
| 20260905221519 | 84 | 234 | 0.0 | 5.0 | 0.00 | 0.09 | 0.09 | 52 | 1010.1 |
| 20260905220018 | 83 | 268 | 1.0 | 3.0 | 0.00 | 0.09 | 0.09 | 53 | 1010.1 |
| 20260905214517 | 82 | 263 | 2.0 | 4.0 | 0.00 | 0.09 | 0.09 | 53 | 1010.1 |
| 20260905213016 | 79 | 218 | 1.0 | 5.0 | 0.00 | 0.09 | 0.09 | 51 | 1010.5 |
| 20260905211515 | 77 | 211 | 0.0 | 2.0 | 0.00 | 0.09 | 0.09 | 46 | 1010.6 |
| 20260905210015 | 76 | 219 | 0.0 | 4.0 | 0.00 | 0.09 | 0.09 | 34 | 1010.7 |
| 20260905204517 | 74 | 190 | 0.0 | 2.0 | 0.00 | 0.09 | 0.09 | 23 | 1011.0 |
| 20260905203016 | 72 | 189 | 0.0 | 3.0 | 0.00 | 0.09 | 0.09 | 32 | 1011.4 |
| 20260905201518 | 72 | 104 | 0.0 | 1.0 | 0.00 | 0.09 | 0.09 | 38 | 1011.5 |
| 20260905200016 | 71 | 75 | 0.0 | 2.0 | 0.00 | 0.09 | 0.09 | 37 | 1011.7 |
| 20260905194513 | 71 | 79 | 1.0 | 4.0 | 0.03 | 0.09 | 0.09 | 43 | 1011.3 |
| 20260905193018 | 71 | 49 | 1.0 | 4.0 | 0.09 | 0.09 | 0.09 | 50 | 1011.4 |
| 20260905191513 | 71 | 360 | 4.0 | 8.0 | 0.09 | 0.09 | 0.09 | 51 | 1011.0 |
| 20260905190030 | 73 | 254 | 2.0 | 10.0 | 0.09 | 0.09 | 0.09 | 54 | 1010.7 |
| 20260905184510 | 75 | 208 | 5.0 | 14.0 | 0.07 | 0.07 | 0.07 | 61 | 1011.1 |
| 20260905183010 | 82 | 347 | 4.0 | 23.0 | 0.00 | 0.00 | 0.00 | 49 | 1011.7 |
| 20260905181510 | 94 | 30 | 9.0 | 18.0 | 0.00 | 0.00 | 0.00 | 35 | 1010.8 |
| 20260905180005 | 97 | 321 | 0.0 | 6.0 | 0.00 | 0.00 | 0.00 | 36 | 1010.5 |
| 20260905174503 | 96 | 326 | 1.0 | 11.0 | 0.00 | 0.00 | 0.00 | 39 | 1010.9 |
| 20260905173002 | 96 | 309 | 2.0 | 8.0 | 0.00 | 0.00 | 0.00 | 37 | 1011.3 |
| 20260905171605 | 95 | 40 | 1.0 | 12.0 | 0.00 | 0.00 | 0.00 | 42 | 1011.7 |
| 20260905171501 | 95 | 272 | 1.0 | 12.0 | 0.00 | 0.00 | 0.00 | 41 | 1011.5 |
| 20260905170100 | 97 | 199 | 3.0 | 6.0 | 0.00 | 0.00 | 0.00 | 38 | 1011.5 |
| 20260905164502 | 96 | 302 | 0.0 | 5.0 | 0.00 | 0.00 | 0.00 | 40 | 1012.0 |
| 20260905163001 | 95 | 247 | 3.0 | 7.0 | 0.00 | 0.00 | 0.00 | 42 | 1012.2 |
| 20260905161600 | 95 | 305 | 2.0 | 4.0 | 0.00 | 0.00 | 0.00 | 42 | 1012.3 |
| 20260905160122 | 95 | 240 | 1.0 | 5.0 | 0.00 | 0.00 | 0.00 | 44 | 1012.4 |
| 20260905154555 | 95 | 179 | 0.0 | 3.0 | 0.00 | 0.00 | 0.00 | 45 | 1012.5 |
| 20260905153101 | 95 | 122 | 2.0 | 5.0 | 0.00 | 0.00 | 0.00 | 46 | 1012.4 |
| 20260905151551 | 93 | 153 | 0.0 | 6.0 | 0.00 | 0.00 | 0.00 | 49 | 1012.5 |
| 20260905150047 | 93 | 91 | 0.0 | 6.0 | 0.00 | 0.00 | 0.00 | 48 | 1012.7 |
| 20260905144548 | 92 | 144 | 1.0 | 6.0 | 0.00 | 0.00 | 0.00 | 15 | 1012.8 |
| 20260905143042 | 89 | 120 | 0.0 | 4.0 | 0.00 | 0.00 | 0.00 | 17 | 1012.9 |
| 20260905141539 | 87 | 147 | 0.0 | 4.0 | 0.00 | 0.00 | 0.00 | 18 | 1012.7 |
| 20260905140037 | 86 | 233 | 2.0 | 4.0 | 0.00 | 0.00 | 0.00 | 20 | 1012.8 |
| 20260905134537 | 85 | 122 | 1.0 | 4.0 | 0.00 | 0.00 | 0.00 | 23 | 1012.9 |
| 20260905133036 | 83 | 111 | 0.0 | 1.0 | 0.00 | 0.00 | 0.00 | 26 | 1012.7 |
| 20260905131541 | 81 | 111 | 0.0 | 0.0 | 0.00 | 0.00 | 0.00 | 30 | 1012.9 |
| 20260905130037 | 80 | 110 | 0.0 | 0.0 | 0.00 | 0.00 | 0.00 | 39 | 1013.1 |
| 20260905124527 | 75 | 110 | 0.0 | 0.0 | 0.00 | 0.00 | 0.00 | 46 | 1013.1 |
| 20260905123024 | 74 | 112 | 0.0 | 0.0 | 0.00 | 0.00 | 0.00 | 48 | 1013.0 |
| 20260905121518 | 73 | 111 | 0.0 | 0.0 | 0.00 | 0.00 | 0.00 | 48 | 1013.1 |
| 20260905120016 | 72 | 111 | 0.0 | 0.0 | 0.00 | 0.00 | 0.00 | 47 | 1013.0 |
| 20260905114516 | 72 | 111 | 0.0 | 0.0 | 0.00 | 0.00 | 0.00 | 47 | 1013.0 |
| 20260905113016 | 71 | 111 | 0.0 | 0.0 | 0.00 | 0.00 | 0.00 | 47 | 1012.8 |
| 20260905111513 | 71 | 111 | 0.0 | 0.0 | 0.00 | 0.00 | 0.00 | 47 | 1012.5 |
| 20260905110012 | 71 | 111 | 0.0 | 0.0 | 0.00 | 0.00 | 0.00 | 47 | 1012.2 |
| 20260905104511 | 72 | 111 | 0.0 | 0.0 | 0.00 | 0.00 | 0.00 | 47 | 1011.9 |
| 20260905103016 | 72 | 111 | 0.0 | 0.0 | 0.00 | 0.00 | 0.00 | 46 | 1011.9 |
| 20260905101510 | 72 | 111 | 0.0 | 0.0 | 0.00 | 0.00 | 0.00 | 46 | 1011.9 |
| 20260905100014 | 72 | 111 | 0.0 | 0.0 | 0.00 | 0.00 | 0.00 | 47 | 1011.8 |
| 20260905094512 | 72 | 111 | 0.0 | 0.0 | 0.00 | 0.00 | 0.00 | 46 | 1011.9 |
| 20260905093008 | 72 | 111 | 0.0 | 0.0 | 0.00 | 0.00 | 0.00 | 45 | 1011.6 |
| 20260905091507 | 73 | 111 | 0.0 | 0.0 | 0.00 | 0.00 | 0.00 | 45 | 1011.7 |
| 20260905090005 | 73 | 111 | 0.0 | 0.0 | 0.00 | 0.00 | 0.00 | 45 | 1011.8 |
| 20260905084502 | 73 | 111 | 0.0 | 0.0 | 0.00 | 0.00 | 0.00 | 44 | 1012.0 |
| 20260905083102 | 73 | 111 | 0.0 | 0.0 | 0.00 | 0.00 | 0.00 | 43 | 1012.0 |
| 20260905081603 | 74 | 111 | 0.0 | 0.0 | 0.00 | 0.00 | 0.00 | 42 | 1012.4 |
| 20260905080059 | 74 | 111 | 0.0 | 0.0 | 0.00 | 0.00 | 0.00 | 41 | 1012.3 |
| 20260905074604 | 74 | 111 | 0.0 | 0.0 | 0.00 | 0.00 | 0.00 | 40 | 1012.4 |
| 20260905073105 | 74 | 111 | 0.0 | 0.0 | 0.00 | 0.00 | 0.00 | 40 | 1012.5 |
| 20260905071557 | 74 | 111 | 0.0 | 0.0 | 0.00 | 0.00 | 0.00 | 39 | 1012.6 |
| 20260905070055 | 75 | 110 | 0.0 | 0.0 | 0.00 | 0.00 | 0.00 | 39 | 1012.9 |
| 20260905064556 | 75 | 110 | 0.0 | 0.0 | 0.00 | 0.00 | 0.00 | 38 | 1012.9 |
| 20260905063055 | 75 | 110 | 0.0 | 0.0 | 0.00 | 0.00 | 0.00 | 37 | 1013.1 |
| 20260905061554 | 75 | 110 | 0.0 | 1.0 | 0.00 | 0.00 | 0.00 | 36 | 1013.2 |
| 20260905060053 | 75 | 110 | 0.0 | 3.0 | 0.00 | 0.00 | 0.00 | 28 | 1013.4 |
| 20260905054553 | 75 | 156 | 0.0 | 0.0 | 0.00 | 0.00 | 0.00 | 22 | 1013.7 |
| 20260905053132 | 76 | 157 | 0.0 | 1.0 | 0.00 | 0.00 | 0.00 | 22 | 1013.9 |
| 20260905051550 | 76 | 157 | 0.0 | 0.0 | 0.00 | 0.00 | 0.00 | 26 | 1013.9 |
| 20260905050048 | 76 | 157 | 1.0 | 2.0 | 0.00 | 0.00 | 0.00 | 29 | 1013.6 |
| 20260905044545 | 76 | 156 | 0.0 | 2.0 | 0.00 | 0.00 | 0.00 | 30 | 1014.0 |
| 20260905043041 | 76 | 157 | 0.0 | 0.0 | 0.00 | 0.00 | 0.00 | 36 | 1013.7 |
| 20260905041543 | 77 | 157 | 0.0 | 3.0 | 0.00 | 0.00 | 0.00 | 40 | 1013.5 |